DECAYED

STARLINK-1791, 46692 (Decayed)

Orbit data source: Space-Track

STARLINK-1791, 46692 was a payload satellite owned by SpaceX/Seattle (US) in LEO that was launched on Sun, 18 Oct 2020 UTC via an FALCON 9 launch vehicle from the Air Force Eastern Test Range (AFETR). Payload-class satellites include a variety of spacecraft equipped with specific instruments for various scientific and technological missions. These include communications satellites like Starlink; space stations such as the ISS; scientific satellites like the Hubble; Earth observation satellites from companies like Planet Labs, Umbra, and HawkEye 360; GPS; miniature CubeSats for education and research; and military/defense satellites.

Not visible in the next 10 days
Identifier
46692, 2020-073Y
Orbit
Decayed
Country
Flag of USUS
Related business
Manufacturer
SpaceX/Seattle
Mission
Decayed Commercial Communications
Bus & Motor
STARLINK, Unknown motor
Mass
260 kg wet, ~248 kg dry
Launch date (UTC)
2020-10-18 (6 years ago)
Launch vehicle
FALCON 9
Launch site
Air Force Eastern Test Range (AFETR)
Object type
Payload
Rocket body
Debris
Shape & HBR
Box + 1 Pan, 10.1 m
Radar Cross Section
13.562 m², Large (>1 m²)

Expand to show TLE details & history
Last TLE update: 1 year ago

TLE from 1 year ago
0 STARLINK-1791
1 46692U 20073Y   25029.15725872  .17678224  12441-4  50266-3 0  9999
2 46692  53.0261 240.1919 0007692 244.4070 216.4778 16.44863811236869
Epoch: 2025-01-29T03:46Z
TLE epoch observation values (Epoch: 2025-01-29T03:46:27.153Z)
Latitude
51.84829°
Longitude
162.59401°
Altitude
163.11 km
Speed
7.812 km/s
True Right ascension
23h 11m 26s
True Declination
51° 39' 57"
Sunlit
Object was in daylight at epoch
Visualization orbit readout
Latitude
Unknown
Longitude
Unknown
Altitude
Unknown
Speed
Unknown
Apparent Right ascension
Unknown
Apparent Declination
Unknown
Sunlit
N/A
Visualization observer readout
Local Sidereal Time
23:18:06
Azimuth
Unknown
Elevation
Unknown
Doppler factor
Unknown
Orbital elements
Apogee altitude
158.211 km
Perigee altitude
148.163 km
Semi-major axis
6,531.324 km
Eccentricity
0.00077
Inclination
53.0261°
RAAN
240.1919°
Arg. of periapsis
244.407°
True anomaly
216.42544°
Mean anomaly
216.4778°
Eccentric anomaly
216.45161°
Mean motion
4.11189 °/min
Orbital period
87.55 mins
BSTAR
0.00050266
Loading maneuver chart data...
Computing Atmospheric mass density...

Documentation

Showing up to 5 results
|